Caribou, ME

5:50 PM EDT on April 25, 2017 (GMT -0400)
Caribou Municipal

Weather History for KCAR - April, 2013

Change the Weather History Date:

Friday, April 19, 2013

  Actual Average Record
Temperature  
Mean Temperature 56 °F 40 °F  
Max Temperature 69 °F 50 °F 72 °F (1987)
Min Temperature 42 °F 31 °F 17 °F (1961)
Degree Days  
Heating Degree Days 9 25  
Month to date heating degree days 571 556  
Since 1 July heating degree days 7804 8531  
Cooling Degree Days 0 0  
Month to date cooling degree days 0 0  
Year to date cooling degree days 0 0  
Growing Degree Days 4 (Base 50)    
Moisture  
Dew Point 44 °F    
Average Humidity 67    
Maximum Humidity 84    
Minimum Humidity 49    
Precipitation  
Precipitation 0.00 in 0.09 in 0.75 in (1968)
Month to date precipitation 0.99 1.69  
Year to date precipitation 8.10 9.12  
Snow  
Snow 0.00 in 0.30 in 3.70 in (1949)
Month to date snowfall 4.3 6.1  
Since 1 July snowfall 106.9 106.9  
Snow Depth 0.00 in    
Sea Level Pressure  
Sea Level Pressure 29.74 in    
Wind  
Wind Speed 14 mph (South)    
Max Wind Speed 23 mph    
Max Gust Speed 31 mph    
Visibility 10 miles    
Events      
T = Trace of Precipitation, MM = Missing Value Source: NWS Daily Summary

Daily Weather History Graph

Daily Weather History Graph

Search for Another Location

Airport or City:

Trip Planner

Search our weather history database for the weather conditions in past years. The results will help you decide how hot, cold, wet, or windy it might be!

Date:

Astronomy

Apr. 19, 2013 Rise Set
Actual Time 5:36 AM EDT 7:26 PM EDT
Civil Twilight 5:04 AM EDT 7:58 PM EDT
Nautical Twilight 4:25 AM EDT 8:38 PM EDT
Astronomical Twilight 3:41 AM EDT 9:22 PM EDT
Moon 12:44 PM EDT (4/19) 2:14 AM EDT (4/19)
Length of Visible Light 14h 54m
Length of Day
13h 49m
First Quarter, 61% of the Moon is Illuminated
Apr 19
First Quarter
Apr 25
Full
May 2
Last Quarter
May 9
New
May 18
First Quarter

Hourly Weather History & Observations

Time (EDT) Temp. Windchill Dew Point Humidity Pressure Visibility Wind Dir Wind Speed Gust Speed Precip Events Conditions
12:54 AM 41.0 °F 33.9 °F 26.1 °F 55% 29.94 in 10.0 mi South 12.7 mph 21.9 mph N/A   Mostly Cloudy
1:54 AM 44.1 °F 36.2 °F 26.1 °F 49% 29.89 in 10.0 mi South 18.4 mph 26.5 mph N/A   Scattered Clouds
2:54 AM 45.0 °F 38.2 °F 28.0 °F 52% 29.88 in 10.0 mi South 15.0 mph 24.2 mph N/A   Mostly Cloudy
3:54 AM 45.0 °F 37.9 °F 28.9 °F 53% 29.86 in 10.0 mi South 16.1 mph 26.5 mph N/A   Scattered Clouds
4:54 AM 45.0 °F 38.9 °F 30.9 °F 58% 29.86 in 10.0 mi South 12.7 mph - N/A   Overcast
5:54 AM 44.1 °F 39.5 °F 33.1 °F 65% 29.86 in 10.0 mi South 8.1 mph 17.3 mph N/A   Scattered Clouds
6:54 AM 44.1 °F 39.5 °F 35.1 °F 71% 29.87 in 10.0 mi South 8.1 mph - N/A   Mostly Cloudy
7:54 AM 48.0 °F - 39.0 °F 71% 29.86 in 10.0 mi South 12.7 mph 21.9 mph N/A   Scattered Clouds
8:54 AM 50.0 °F - 41.0 °F 71% 29.84 in 10.0 mi SSW 12.7 mph 20.7 mph N/A   Mostly Cloudy
9:54 AM 54.0 °F - 43.0 °F 66% 29.83 in 10.0 mi South 18.4 mph - N/A   Overcast
10:54 AM 57.0 °F - 44.1 °F 62% 29.82 in 10.0 mi South 12.7 mph 18.4 mph N/A   Overcast
11:54 AM 60.1 °F - 46.0 °F 60% 29.79 in 10.0 mi South 11.5 mph - N/A   Overcast
12:54 PM 64.9 °F - 48.0 °F 54% 29.75 in 10.0 mi South 12.7 mph 21.9 mph N/A   Overcast
1:54 PM 66.0 °F - 48.9 °F 54% 29.73 in 10.0 mi South 18.4 mph 25.3 mph N/A   Clear
2:54 PM 64.9 °F - 48.9 °F 56% 29.70 in 10.0 mi South 17.3 mph 28.8 mph N/A   Clear
3:54 PM 66.9 °F - 48.9 °F 52% 29.67 in 10.0 mi South 18.4 mph 25.3 mph N/A   Clear
4:54 PM 68.0 °F - 48.9 °F 50% 29.65 in 10.0 mi South 18.4 mph 27.6 mph N/A   Clear
5:54 PM 66.9 °F - 50.0 °F 54% 29.63 in 10.0 mi South 12.7 mph 23.0 mph N/A   Clear
6:54 PM 64.9 °F - 52.0 °F 63% 29.62 in 10.0 mi South 16.1 mph 23.0 mph N/A   Clear
7:54 PM 63.0 °F - 52.0 °F 67% 29.59 in 10.0 mi South 16.1 mph 25.3 mph N/A   Clear
8:54 PM 61.0 °F - 53.1 °F 75% 29.57 in 10.0 mi South 11.5 mph 24.2 mph N/A   Clear
9:54 PM 61.0 °F - 54.0 °F 78% 29.56 in 10.0 mi South 18.4 mph 24.2 mph N/A   Mostly Cloudy
10:54 PM 61.0 °F - 55.0 °F 81% 29.55 in 10.0 mi South 13.8 mph 24.2 mph N/A   Overcast
11:32 PM 62.6 °F - 55.4 °F 77% 29.52 in 10.0 mi South 16.1 mph 27.6 mph N/A   Overcast
11:54 PM 61.0 °F - 55.0 °F 81% 29.50 in 10.0 mi South 15.0 mph 25.3 mph N/A   Overcast